This demonstration page uses our WeatherBlox Daily Observations layout. Learn more.

Left ArrowRight Arrow

Hourly Observations for August 1, 2021

Temp ( °F °C ) Dew Point ( °F °C ) Humidity (%) Winds ( mph kmh ) Pressure ( in mb ) Visibility ( mi km ) Precip ( " mm )
12:53 am 00:53 Clear 60 15.6 60 15.6 100 100 N N/A 29.94 1014 8 13 N/A
1:53 am 01:53 Clear 59 15 59 15 100 100 N N/A 29.95 1014 9 14 N/A
2:53 am 02:53 Clear 59 15 59 15 100 100 N N/A 29.94 1014 8 13 N/A
3:53 am 03:53 Clear with Mist and Fog 59 15 58 14.4 96 96 N N/A 29.94 1014 6 10 N/A
4:53 am 04:53 Clear with Mist and Fog 58 14.4 58 14.4 100 100 N N/A 29.94 1014 5 8 N/A
5:53 am 05:53 Clear with Mist and Fog 57 13.9 57 13.9 100 100 N N/A 29.94 1014 4 6 N/A
6:53 am 06:53 Sunny with Mist and Fog 57 13.9 56 13.3 96 96 N N/A 29.95 1014 3 4 N/A
7:02 am 07:02 Sunny with Mist and Fog 56 13.3 56 13.3 100 100 N N/A 29.96 1015 4 6 N/A
7:53 am 07:53 Sunny with Mist and Fog 61 16.1 60 15.6 97 97 N N/A 29.96 1014 4 6 N/A
8:53 am 08:53 Sunny with Mist and Fog 65 18.3 61 16.1 87 87 N N/A 29.97 1015 6 10 N/A
9:53 am 09:53 Sunny 69 20.6 64 17.8 84 84 VRB 3 6 29.97 1015 7 11 N/A
10:53 am 10:53 Sunny 73 22.8 65 18.3 76 76 WNW 8 13 29.96 1015 9 14 N/A
11:53 am 11:53 Mostly Sunny 77 25 67 19.4 71 71 W 8 13 29.97 1015 9 14 N/A
12:53 pm 12:53 Mostly Cloudy 78 25.6 66 18.9 67 67 WNW 9 15 29.96 1015 8 13 N/A
1:53 pm 13:53 Mostly Cloudy with Light Rain 78 25.6 68 20 71 71 WNW 8 13 29.95 1014 8 13 0.00 0.00
2:43 pm 14:43 Mostly Cloudy with Light Rain 73 22.8 68 20 84 84 WNW 13 20 29.94 1014 2 3 0.05 1.27
2:53 pm 14:53 Mostly Cloudy with Mist and Fog 75 23.9 71 21.7 88 88 WNW 12 19 29.95 1014 6 10 0.05 1.27
3:53 pm 15:53 Hazy 78 25.6 69 20.6 74 74 VRB 7 11 29.95 1014 6 10 N/A
4:53 pm 16:53 Partly Cloudy 77 25 62 16.7 60 60 NNW 8 13 29.96 1015 8 13 0.00 0.00
5:53 pm 17:53 Sunny 80 26.7 63 17.2 56 56 N 10 17 29.96 1014 9 14 N/A
6:53 pm 18:53 Sunny 79 26.1 56 13.3 45 45 NNW 10 17 29.97 1015 9 14 N/A
7:53 pm 19:53 Sunny 75 23.9 56 13.3 52 52 NNW 8 13 29.98 1015 10 16 N/A
8:53 pm 20:53 Clear 69 20.6 58 14.4 68 68 NNW 5 7 30.00 1016 9 14 N/A
9:53 pm 21:53 Clear 63 17.2 60 15.6 90 90 N N/A 30.03 1017 9 14 N/A
10:53 pm 22:53 Clear 62 16.7 58 14.4 86 86 NW 3 6 30.05 1018 8 13 N/A
11:53 pm 23:53 Clear 61 16.1 57 13.9 87 87 NNW 5 7 30.06 1018 8 13 N/A

Powered by AerisWeather